Home   Weather   Swakopmund   Past weeks

Flag for Namibia Past Weather in Swakopmund, Namibia — Yesterday and Last 2 Weeks

Now
54 °F

Cool.


Feels Like: 54 °F
Forecast: 62 / 71 °F
Wind: No wind

Location: Walvis Bay

Current Time: May 26, 2017 at 8:27:48 am

Latest Report: May 26, 2017 at 8:00 am


Visibility: N/A

Pressure: 30.01 "Hg

Humidity: 82%

Dew Point: 48 °F

Location of SwakopmundLocation

Past Weather in Swakopmund — Graph

°F

Swakopmund Temperature Yesterday

Maximum temperature yesterday: 88 °F (at 2:00 pm)
Minimum temperature yesterday: 59 °F (at 7:00 am)
Average temperature yesterday: 71 °F

High & Low Weather Summary for the Past Weeks

 TemperatureHumidityPressure
High97 °F (May 20, 1:00 pm)94% (May 11, 7:00 am)30.30 "Hg (May 11, 7:00 am)
Low50 °F (May 12, 6:00 am)9% (May 23, 2:00 pm)29.89 "Hg (May 13, 4:00 pm)
Average72 °F42%30.00 "Hg
* Reported May 11 7:00 am — May 26 7:00 am, Swakopmund. Weather by CustomWeather, © 2017

Note: Actual official high and low records may vary slightly from our data, if they occured in-between our weather recording intervals... More about our weather records

Advertising

Swakopmund Weather History for the Previous 24 Hours

Scroll right to see more
 ConditionsComfort  
Time TempWeatherWind HumidityBarometerVisibility
7:00 am
Fri, May 26
52 °FSunny.3 mph88%29.98 "Hg10 mi
6:00 am52 °FCool.6 mph82%29.95 "HgN/A
5:00 am61 °FRefreshingly cool.8 mph36%29.92 "HgN/A
4:00 am68 °FMild.14 mph28%29.92 "HgN/A
3:00 am66 °FMild.16 mph30%29.92 "HgN/A
2:00 am61 °FRefreshingly cool.1 mph42%29.95 "HgN/A
1:00 am59 °FRefreshingly cool.7 mph59%29.95 "HgN/A
12:00 am55 °FCool.8 mph77%29.98 "HgN/A
11:00 pm
Thu, May 25
61 °FCool.1 mph68%29.98 "HgN/A
10:00 pm61 °FCool.1 mph68%29.98 "HgN/A
9:00 pm64 °FMild.3 mph60%29.98 "HgN/A
8:00 pm64 °FMild.1 mph64%29.95 "HgN/A
7:00 pm64 °FClear.8 mph64%29.92 "Hg10 mi
6:00 pm68 °FMild.8 mph56%29.92 "HgN/A
5:00 pm75 °FMild.10 mph41%29.89 "HgN/A
4:00 pm81 °FPleasantly warm.13 mph30%29.89 "HgN/A
2:00 pm88 °FPleasantly warm.12 mph18%29.92 "HgN/A
12:00 pm84 °FSunny.5 mph23%29.98 "Hg10 mi
11:00 am79 °FPleasantly warm.5 mph32%30.01 "HgN/A
10:00 am73 °FSunny.3 mph38%30.01 "Hg10 mi
9:00 am77 °FSunny.6 mph22%30.01 "Hg10 mi
Weather by CustomWeather, © 2017

See weather overviewHow to use our weather pages